Weather in Koh Lanta Yai

Thailand     7°33′18″N   99°03′52″E
temp.,
°C
wind,
m/s
gust,
m/s
humid.,
%
clouds,
%
prec.,
mm/h
press.,
hPa
HPBL,
m
9 december, thu
thu901:00+26ne9128029 0.0 1012715
04:00+26ne8118187 0.0 1010738
07:00+26ene8118093 0.0 1012842
10:00+27ene81070100 0.0 10141100
13:00+29ene71064100 0.0 1011919
16:00+30ene81064100 0.0 1009572
19:00+28ene9117373 0.0 1011846
22:00+27ene10127874 0.0 1013756
10 december, fri
fri1001:00+27ne8118177 0.0 1012700
04:00+26ne7108397 0.0 1011674
07:00+26ne8118327 0.0 1012709
10:00+28ene911749 0.0 10131040
13:00+29e6869100 0.1 1011799
16:00+29ene8973100 1.2 1009914
19:00+28ene101266100 1.8 1011857
22:00+27ene101268100 0.0 1013797
11 december, sat
sat1101:00+26ene9107452 0.0 1012701
04:00+26ene8107617 0.0 1011677
07:00+26ene8117616 0.0 1012647
10:00+28ene897116 0.0 1013805
13:00+29e476858 0.0 1010762
16:00+29ene787298 1.9 1008767
19:00+28ene911710 2.9 1010721
22:00+27ene912753 0.0 1012705
12 december, sun
sun1201:00+27ene912775 0.0 1011744
04:00+26ene8118181 0.0 1010729
07:00+26ene711765 0.0 1012747
10:00+27ene8107191 0.0 1013984
13:00+29ene5867100 0.0 1010646
16:00+30ene896546 0.0 1007682
19:00+28ene10117091 0.0 1010772
22:00+27ene1012745 0.0 1012740
13 december, mon
mon1301:00+26ne81077100 0.0 1011675
04:00+26ne7107887 0.0 1009648
07:00+26ne7107968 0.0 1011673
10:00+27ne7973100 0.0 1012815
13:00+29ene4767100 0.0 1009556
16:00+30ene576878 0.1 1007323
19:00+28ene10117174 0.2 1009746
22:00+27ene101276100 0.0 1011728